Regional Weather Roundup
Issued by NWS Sioux Falls, SD

Home | Current Version | Previous Version | Graphics & Text | Print | Product List | Glossary Off
Versions: 1 2 3 4 5 6 7 8 9 10 11 12 13 14 15 16 17 18 19 20 21 22 23 24 25 26 27 28 29 30 31 32 33 34 35 36 37 38 39 40 41 42 43 44 45 46 47 48 49 50

000
ASUS43 KFSD 271802
RWRFSD

WEATHER ROUNDUP FOR SE SOUTH DAKOTA/SW MINNESOTA/NW IOWA
NATIONAL WEATHER SERVICE SIOUX FALLS SD
1200 PM CST THU NOV 27 2014

NOTE: "FAIR" INDICATES FEW OR NO CLOUDS BELOW 12,000 FEET WITH NO
SIGNIFICANT WEATHER AND OR OBSTRUCTIONS TO VISIBILITY.


SDZ038>040-050-052>070-271900-
SOUTHEAST SOUTH DAKOTA

CITY           SKY/WX    TMP DP  RH WIND       PRES   REMARKS
CHAMBERLAIN    NOT AVBL
HURON          CLOUDY     8  -5  55 SE9       30.38F WCI  -5
6HR MIN TEMP:  -6; 6HR MAX TEMP:   8;

MADISON        MOCLDY     7  -4  61 SE13      30.37F WCI  -9
MITCHELL       CLOUDY    12   1  61 SE16      30.39F WCI  -5
6HR MIN TEMP:   0; 6HR MAX TEMP:  12;

SIOUX FALLS    PTSUNNY    7  -5  57 SE9       30.42F WCI  -7
6HR MIN TEMP:  -7; 6HR MAX TEMP:   7;

WINNER         MOCLDY    24  12  60 SE17      30.21F WCI  11
YANKTON        CLOUDY    12   3  67 E9        30.43F WCI   0
$$

MNZ071-072-080-081-089-090-097-098-271900-
SOUTHWEST MINNESOTA

CITY           SKY/WX    TMP DP  RH WIND       PRES   REMARKS
FAIRMONT       SUNNY      1  -6  71 CALM      30.48F
JACKSON        SUNNY      1  -6  71 CALM      30.46F
LUVERNE        MOSUNNY    9  -4  56 SE3       30.45F
MARSHALL       SUNNY      0  -9  65 S6        30.46F WCI -12
6HR MIN TEMP: -13; 6HR MAX TEMP:   1;

MONTEVIDEO     SUNNY      3  -4  72 S5        30.48F WCI  -6
PIPESTONE      MOSUNNY    7  -4  61 S8        30.39F WCI  -6
REDWOOD FALLS  SUNNY     -1  -7  75 SW7       30.49F WCI -14
TRACY          SUNNY      3  -4  72 SW3       30.46F
WINDOM         SUNNY      1  -6  71 CALM      30.45F
WORTHINGTON    SUNNY      1  -2  85 SE6       30.44F WCI -10
$$

IAZ001>003-012>014-020>022-031-032-NEZ013-014-SDZ071-271900-
NORTHWEST IOWA

CITY           SKY/WX    TMP DP  RH WIND       PRES   REMARKS
DENISON        CLOUDY    10  -4  52 VRB5      30.48F WCI   2
ESTHERVILLE    SUNNY     -1  -6  79 W3        30.48F
SIOUX CITY     CLOUDY    12  -2  53 SE8       30.50F WCI   0
6HR MIN TEMP:   7; 6HR MAX TEMP:  12;

SPENCER        SUNNY      2  -4  76 CALM      30.48F
                                      6HR PCP: TRACE;

$$

ABBREVIATIONS USED IN REMARKS
   TC - TEMPERATURE IN CELSIUS
  WCI - WIND CHILL INDEX
   HX - HEAT INDEX
  VSB - VISIBILITY




USA.gov is the U.S. government's official web portal to all federal, state and local government web resources and services.